Simultaneous Nadir Overpasses (SNOs) Predictions

Prediction of SNOs between NOAA-20 and NOAA-19 Satellite Orbit:

Table of predicted SNOs for the next 14.0 days since TLE Epoch: 9/21/2018
Index Date (NOAA-20) Time (NOAA-20) Lat,Lon (NOAA-20) SZA (NOAA-20 ) Date (NOAA-19) Time (NOAA-19) Lat,Lon (NOAA-19) SZA (NOAA-19 ) Distance(km) Time Diff (sec)
1 09/23/2018 00:47:03 -80.41, -55.34 97.20 09/23/2018 00:45:50 -80.43, -55.43 97.15 2.62 73
2 09/23/2018 01:37:49 80.43, 111.68 82.86 09/23/2018 01:36:47 80.42, 111.73 82.88 1.58 62
3 09/23/2018 02:28:34 -80.43, -81.06 97.12 09/23/2018 02:27:51 -80.43, -80.91 97.12 2.97 43
4 09/23/2018 03:19:19 80.43, 86.27 82.90 09/23/2018 03:18:48 80.42, 86.25 82.90 1.42 31
5 09/23/2018 04:10:04 -80.44,-106.47 97.09 09/23/2018 04:09:52 -80.43,-106.39 97.10 1.74 12
6 09/23/2018 05:00:49 80.43, 60.87 82.93 09/23/2018 05:00:49 80.42, 60.76 82.93 2.47 0
7 09/23/2018 05:51:34 -80.44,-131.87 97.06 09/23/2018 05:51:53 -80.43,-131.87 97.07 1.14 19
8 09/23/2018 06:42:19 80.44, 35.46 82.96 09/23/2018 06:42:49 80.44, 35.62 82.93 2.84 30
9 09/23/2018 07:33:04 -80.44,-157.27 97.02 09/23/2018 07:33:54 -80.43,-157.35 97.05 1.91 50
10 09/23/2018 08:23:49 80.44, 10.06 82.99 09/23/2018 08:24:50 80.44, 10.13 82.96 1.32 61




NCC Satellite Simultaneous Nadir Overpasses (SNOs) Prediction Service
